Location: ??
(35.5052°N, 139.7262°E)
Time: 17:27:06
(UTC+00:00)

ARIANE 5 R/B - Pass Details

Date: 20 June 2021
Orbit: 748 x 795 km, 98.7° (Epoch: 29 July)

Event Time Altitude Azimuth Distance (km) Brightness Sun altitude
Rises 17:58:58 0° 10° (N) 3,201 6.7 -15.0°
Reaches altitude 10° 18:01:15 10° 9° (N) 2,274 5.7 -14.7°
Maximum altitude 18:06:14 74° 285° (WNW) 785 2.4 -13.9°
Enters shadow 18:10:14 16° 202° (SSW) 1,890 4.0 -13.3°
